Date String (YYYY-MM-DD hh:mm:ss) UTC,Instrument flags,Ambient pressure (hPa),Sample flow (lpm),Bypass flow (lpm),Sample temperature (°C),Ambient temperature (°C),ASC tube jacket temperature (°C),LED temperature (°C),Box temperature (°C),Sample RH (%),Span deviation,Mass concentration (μg/m³),Mass concentration (μg/m³),Mass concentration (μg/m³)
DateTimeUTC,F1_M11,P_M11,Q1_M11,Q2_M11,T1_M11,T2_M11,T3_M11,T4_M11,T5_M11,U1_M11,ZSPAN_M11,X2_M11,X0_M11,X1_M11
2022-03-12 09:00:00,,0826.1,4.99,0.00,22.4,22.1,00.0,31.5,24.1,08.2,0000.0,0005.66,0009.55,0005.02
2022-03-12 09:01:00,,0826.0,5.01,0.00,22.5,22.9,00.0,31.5,24.4,08.2,0000.0,0005.62,0009.36,0005.03
2022-03-12 09:02:00,,0826.0,4.99,0.00,22.6,23.1,00.0,31.6,24.6,08.2,0000.0,0005.63,0009.35,0005.04
2022-03-12 09:03:00,,0826.1,4.99,0.00,22.7,22.9,00.0,31.6,24.6,08.2,0000.0,0005.62,0009.32,0005.05
2022-03-12 09:04:00,,0826.1,5.00,0.00,22.7,22.6,00.0,31.6,24.5,08.2,-000.2,0005.59,0009.20,0005.04
2022-03-12 09:05:00,,0826.1,4.99,0.00,22.7,22.4,00.0,31.6,24.4,08.2,-000.2,0005.59,0009.18,0005.05
2022-03-12 09:06:00,,0826.0,5.00,0.00,22.6,22.1,00.0,31.6,24.3,08.2,0000.0,0005.61,0009.17,0005.06
2022-03-12 09:07:00,,0826.1,5.01,0.00,22.6,21.9,00.0,31.6,24.3,08.3,0000.1,0005.57,0008.88,0005.07
2022-03-12 09:08:00,,0826.1,4.99,0.00,22.6,21.8,00.0,31.5,24.2,08.2,0000.6,0005.54,0008.86,0005.05
2022-03-12 09:09:00,,0826.1,5.00,0.00,22.5,21.7,00.0,31.5,24.2,08.0,0000.0,0005.55,0009.81,0004.99
2022-03-12 09:10:00,,0826.1,4.99,0.00,22.5,21.6,00.0,31.5,24.1,08.2,0000.0,0005.68,0010.12,0005.05
2022-03-12 09:11:00,,0826.0,5.00,0.00,22.4,21.6,00.0,31.5,24.1,08.2,0000.0,0005.71,0010.43,0005.06
2022-03-12 09:12:00,,0826.0,5.00,0.00,22.4,21.5,00.0,31.5,24.0,08.1,0000.0,0005.72,0011.09,0005.04
2022-03-12 09:13:00,,0826.0,5.00,0.00,22.4,21.6,00.0,31.5,24.0,08.1,0000.0,0005.73,0011.36,0005.02
2022-03-12 09:14:00,,0825.9,5.00,0.00,22.5,22.3,00.0,31.5,24.2,08.1,0001.2,0005.74,0011.66,0005.01
2022-03-12 09:15:00,,0825.9,4.99,0.00,22.6,23.1,00.0,31.5,24.5,07.9,0000.0,0005.71,0011.99,0004.96
2022-03-12 09:16:00,,0826.0,4.99,0.00,22.7,23.2,00.0,31.6,24.6,07.8,0000.0,0005.53,0011.88,0004.78
2022-03-12 09:17:00,,0826.0,5.02,0.00,22.7,23.0,00.0,31.6,24.6,07.9,0000.0,0005.45,0011.78,0004.72
2022-03-12 09:18:00,,0825.9,5.00,0.00,22.7,22.6,00.0,31.6,24.5,08.0,0000.0,0005.49,0011.86,0004.75
2022-03-12 09:19:00,,0826.0,5.00,0.00,22.7,22.4,00.0,31.6,24.4,08.1,0000.0,0005.59,0011.72,0004.85
2022-03-12 09:20:00,,0825.9,5.00,0.00,22.6,22.2,00.0,31.6,24.3,08.1,0001.4,0005.66,0011.11,0004.97
2022-03-12 09:21:00,,0825.9,4.99,0.00,22.6,22.0,00.0,31.6,24.3,08.2,0001.5,0005.67,0011.37,0005.03
2022-03-12 09:22:00,,0826.0,5.00,0.00,22.6,21.9,00.0,31.6,24.2,07.9,0001.5,0005.64,0011.12,0005.03
2022-03-12 09:23:00,,0826.0,5.00,0.00,22.5,21.8,00.0,31.6,24.2,07.9,0000.4,0005.62,0010.70,0005.01
2022-03-12 09:24:00,,0826.0,4.99,0.00,22.5,21.6,00.0,31.5,24.1,08.1,-000.1,0005.65,0010.48,0005.10
2022-03-12 09:25:00,,0826.1,4.99,0.00,22.4,21.6,00.0,31.5,24.1,08.2,0000.8,0005.74,0010.28,0005.19
2022-03-12 09:26:00,,0826.0,5.01,0.00,22.4,21.8,00.0,31.5,24.1,08.2,0001.0,0005.89,0010.11,0005.35
2022-03-12 09:27:00,,0826.1,5.00,0.00,22.5,22.5,00.0,31.5,24.3,08.2,0000.4,0006.22,0010.43,0005.62
2022-03-12 09:28:00,,0826.1,5.01,0.00,22.7,23.2,00.0,31.6,24.6,08.2,-000.7,0006.37,0010.61,0005.77
2022-03-12 09:29:00,,0826.0,4.99,0.00,22.8,23.2,00.0,31.6,24.7,08.2,-000.6,0006.46,0011.26,0005.84
2022-03-12 09:30:00,,0826.1,5.01,0.00,22.8,23.0,00.0,31.6,24.7,08.2,-000.3,0006.52,0011.63,0005.88
2022-03-12 09:31:00,,0826.1,5.00,0.00,22.8,22.7,00.0,31.6,24.6,08.2,-000.3,0006.56,0011.55,0005.93
2022-03-12 09:32:00,,0826.1,5.00,0.00,22.7,22.4,00.0,31.6,24.5,08.2,-000.4,0006.59,0011.15,0005.99
2022-03-12 09:33:00,,0826.1,5.00,0.00,22.7,22.2,00.0,31.6,24.4,08.2,-000.7,0006.70,0011.26,0006.09
2022-03-12 09:34:00,,0826.1,5.01,0.00,22.7,22.0,00.0,31.6,24.4,08.2,-000.5,0006.89,0012.18,0006.25
2022-03-12 09:35:00,,0826.2,5.00,0.00,22.6,21.9,00.0,31.6,24.3,08.2,-000.4,0006.93,0012.65,0006.28
2022-03-12 09:36:00,,0826.2,4.99,0.00,22.6,21.8,00.0,31.6,24.3,07.9,-001.1,0006.83,0012.47,0006.22
2022-03-12 09:37:00,,0826.2,5.00,0.00,22.6,21.7,00.0,31.6,24.2,07.9,-000.9,0006.76,0012.39,0006.14
2022-03-12 09:38:00,,0826.2,5.01,0.00,22.6,21.7,00.0,31.6,24.2,07.9,-001.5,0006.68,0012.29,0006.09
2022-03-12 09:39:00,,0826.2,4.98,0.00,22.5,21.6,00.0,31.6,24.1,08.0,-000.5,0006.68,0012.38,0006.05
2022-03-12 09:40:00,,0826.2,5.00,0.00,22.5,21.6,00.0,31.5,24.1,08.1,-000.5,0006.67,0012.10,0006.04
2022-03-12 09:41:00,,0826.1,5.00,0.00,22.5,21.6,00.0,31.5,24.1,08.2,-000.6,0006.65,0011.49,0006.06
2022-03-12 09:42:00,,0826.1,5.01,0.00,22.4,21.5,00.0,31.5,24.1,08.2,-000.0,0006.64,0011.49,0006.07
2022-03-12 09:43:00,,0826.3,5.00,0.00,22.4,21.5,00.0,31.5,24.0,08.3,0000.0,0006.67,0011.43,0006.07
2022-03-12 09:44:00,,0826.4,5.00,0.00,22.4,22.0,00.0,31.5,24.1,08.2,0000.0,0006.66,0011.46,0006.05
2022-03-12 09:45:00,,0826.3,4.99,0.00,22.6,22.8,00.0,31.5,24.4,08.0,0000.0,0006.57,0010.97,0005.94
2022-03-12 09:46:00,,0826.2,5.00,0.00,22.7,23.2,00.0,31.6,24.6,07.7,0000.0,0006.44,0010.92,0005.81
2022-03-12 09:47:00,,0826.1,5.01,0.00,22.8,23.0,00.0,31.6,24.7,07.6,0000.2,0006.42,0011.06,0005.74
2022-03-12 09:48:00,,0826.0,4.99,0.00,22.8,22.8,00.0,31.6,24.6,07.5,0001.1,0006.39,0011.09,0005.71
2022-03-12 09:49:00,,0826.0,5.00,0.00,22.7,22.6,00.0,31.6,24.4,07.3,0001.0,0006.24,0010.94,0005.57
2022-03-12 09:50:00,,0826.0,5.00,0.00,22.6,22.3,00.0,31.6,24.3,07.2,0000.3,0006.04,0010.71,0005.40
2022-03-12 09:51:00,,0826.0,5.02,0.00,22.6,22.1,00.0,31.6,24.3,07.3,0000.0,0005.84,0010.91,0005.21
2022-03-12 09:52:00,,0826.0,4.98,0.00,22.6,22.0,00.0,31.6,24.2,07.2,0000.0,0005.62,0010.79,0004.99
2022-03-12 09:53:00,,0826.0,5.02,0.00,22.6,21.9,00.0,31.6,24.2,07.4,0000.0,0005.43,0010.67,0004.80
2022-03-12 09:54:00,,0826.0,5.00,0.00,22.5,21.8,00.0,31.5,24.2,07.4,0000.0,0005.29,0010.56,0004.65
2022-03-12 09:55:00,,0826.1,4.99,0.00,22.5,21.6,00.0,31.5,24.1,07.3,0000.0,0005.09,0010.49,0004.45
2022-03-12 09:56:00,,0826.0,5.01,0.00,22.4,21.5,00.0,31.5,24.0,07.2,0000.0,0004.89,0010.17,0004.31
2022-03-12 09:57:00,,0826.0,5.00,0.00,22.4,21.4,00.0,31.5,23.9,07.3,0000.0,0004.77,0009.19,0004.23
2022-03-12 09:58:00,,0826.0,4.99,0.00,22.3,21.3,00.0,31.5,23.8,07.3,0000.0,0004.65,0008.79,0004.16
2022-03-12 09:59:00,,0826.0,5.00,0.00,22.3,21.8,00.0,31.5,24.0,07.4,0000.0,0004.61,0008.72,0004.10
